FW5327 Indian Head MD US current weather conditions

sailwx.info

Wind from 323 at 6 knots

Air temperature 6.1° C
Dewpoint -3.0° C

Last reported at 2020-Jan-28 22:10 UTC.
Time now 2020-Jan-28 22:49 UTC

Location: N 38°37' W 077°04'.
View on Google Maps.

See reports from other nearby stations

  
Tides and Currents Weather Stations Pressure Air Temp Water Temp Dewpoint Dewpoint Depression Visibility Wind Speed Wind Dir Waves Ship Positions
date/time (UTC)wind fromknots sea level pressurealtimeterstation pressurevisibilityair tempwater tempwave heightnotes
2020-Jan-28 22:10 323 6 6.1
2020-Jan-28 22:00 345 6 6.7
2020-Jan-28 21:51 298 5 6.7
2020-Jan-28 21:41 325 5 6.7
2020-Jan-28 21:31 298 5 6.7
2020-Jan-28 21:21 324 7 6.7
2020-Jan-28 21:12 298 8 6.7
2020-Jan-28 21:03 315 8 6.7
2020-Jan-28 20:53 301 6 6.7
2020-Jan-28 20:44 311 5 6.7
2020-Jan-28 20:34 325 6 6.7
2020-Jan-28 20:25 326 6 6.7
2020-Jan-28 20:15 319 9 6.7
2020-Jan-28 20:05 316 6 6.7
2020-Jan-28 19:56 325 3 6.7
2020-Jan-28 19:47 294 6 6.1
2020-Jan-28 19:37 304 8 6.1
2020-Jan-28 19:28 299 6 6.1
2020-Jan-28 19:18 299 6 6.1
2020-Jan-28 19:09 310 6 6.1
2020-Jan-28 18:59 312 6 6.1
2020-Jan-28 18:50 280 5 6.1
2020-Jan-28 18:41 305 6 6.1
2020-Jan-28 18:31 299 5 6.1
2020-Jan-28 18:21 314 5 6.1
2020-Jan-28 18:12 311 6 6.1
2020-Jan-28 18:02 324 6 6.1
2020-Jan-28 17:52 307 6 6.1
2020-Jan-28 17:43 315 11 6.1
2020-Jan-28 17:33 316 7 6.1
2020-Jan-28 17:24 298 6 6.1
2020-Jan-28 17:15 336 6 6.1
2020-Jan-28 17:05 332 7 6.7
2020-Jan-28 16:55 297 5 6.7
2020-Jan-28 16:46 313 4 5.6
2020-Jan-28 16:37 313 3 5.6
2020-Jan-28 16:27 321 6 5.6
2020-Jan-28 16:18 324 6 5.6
2020-Jan-28 16:08 290 6 5.6
2020-Jan-28 15:59 332 6 5.6
2020-Jan-28 15:49 330 6 5.6
2020-Jan-28 15:40 329 6 5.6
2020-Jan-28 15:30 318 6 5.6
2020-Jan-28 15:21 321 5 5.6
2020-Jan-28 15:11 311 7 5.6
2020-Jan-28 15:01 315 9 5.6
2020-Jan-28 14:51 327 9 5.6
2020-Jan-28 14:42 323 7 5.6
2020-Jan-28 14:32 318 9 5.0
2020-Jan-28 14:23 315 9 5.0
2020-Jan-28 14:13 313 5 4.4
2020-Jan-28 14:04 312 6 4.4
2020-Jan-28 13:54 316 5 4.4
2020-Jan-28 13:44 336 3 4.4
2020-Jan-28 13:35 327 1 3.9
2020-Jan-28 13:26 311 3 3.9
2020-Jan-28 13:16 323 4 3.9
2020-Jan-28 13:07 302 4 3.9
2020-Jan-28 12:57 317 5 3.9
2020-Jan-28 12:48 317 5 3.9
2020-Jan-28 12:38 318 4 3.9
2020-Jan-28 12:28 334 6 3.9
2020-Jan-28 12:18 322 5 3.9
2020-Jan-28 12:09 339 7 3.9
2020-Jan-28 11:59 325 3 3.9
2020-Jan-28 11:49 329 3 3.9
2020-Jan-28 11:40 309 5 3.9
2020-Jan-28 11:31 301 4 3.9
2020-Jan-28 11:21 309 6 3.9
2020-Jan-28 11:11 316 4 3.9
2020-Jan-28 11:01 301 3 3.9
2020-Jan-28 10:52 328 4 3.9
2020-Jan-28 10:42 318 6 3.9
2020-Jan-28 10:32 321 2 3.9
2020-Jan-28 10:23 315 3 3.9
2020-Jan-28 10:14 318 5 3.9
2020-Jan-28 10:04 317 4 3.9
2020-Jan-28 09:54 318 6 3.9
2020-Jan-28 09:45 316 2 3.9
2020-Jan-28 09:36 323 3 3.9
2020-Jan-28 09:26 311 5 3.9
2020-Jan-28 09:16 280 2 3.9
2020-Jan-28 09:06 289 4 3.9
2020-Jan-28 08:56 315 5 3.9
2020-Jan-28 08:47 305 4 3.9
2020-Jan-28 08:37 315 4 3.9
2020-Jan-28 08:28 298 5 3.9
2020-Jan-28 08:18 303 6 3.9
2020-Jan-28 08:08 310 3 3.9
2020-Jan-28 07:59 307 5 3.9
2020-Jan-28 07:49 312 6 4.4
2020-Jan-28 07:39 314 6 4.4
2020-Jan-28 07:30 304 6 4.4
2020-Jan-28 07:20 320 6 4.4
2020-Jan-28 07:10 324 9 4.4
2020-Jan-28 07:01 315 6 4.4
2020-Jan-28 06:51 328 6 4.4
2020-Jan-28 06:41 320 5 4.4
2020-Jan-28 06:32 314 7 4.4
2020-Jan-28 06:23 311 6 4.4
2020-Jan-28 06:13 319 6 4.4
2020-Jan-28 06:04 313 7 4.4
2020-Jan-28 05:54 305 5 4.4
2020-Jan-28 05:45 320 5 4.4
2020-Jan-28 05:35 307 4 4.4
2020-Jan-28 05:26 289 6 4.4
2020-Jan-28 05:16 325 4 4.4
2020-Jan-28 05:07 305 5 4.4
2020-Jan-28 04:58 308 5 4.4
2020-Jan-28 04:49 317 5 5.0
2020-Jan-28 04:40 276 6 5.0
2020-Jan-28 04:30 317 6 5.0
2020-Jan-28 04:21 295 4 5.0
2020-Jan-28 04:12 294 4 5.0
2020-Jan-28 04:02 286 4 5.0
2020-Jan-28 03:53 314 4 5.0
2020-Jan-28 03:44 315 2 5.0
2020-Jan-28 03:34 310 2 5.0
2020-Jan-28 03:24 293 5 5.0
2020-Jan-28 03:15 321 5 5.0
2020-Jan-28 03:05 300 5 5.0
2020-Jan-28 02:55 306 7 4.4
2020-Jan-28 02:46 302 4 4.4
2020-Jan-28 02:36 313 4 4.4
2020-Jan-28 02:26 326 5 4.4
2020-Jan-28 02:17 303 8 5.0
2020-Jan-28 02:08 335 4 5.0
2020-Jan-28 01:58 321 6 5.0
2020-Jan-28 01:49 322 8 5.0
2020-Jan-28 01:39 316 7 5.6
2020-Jan-28 01:30 326 6 5.6
2020-Jan-28 01:20 317 4 5.6
2020-Jan-28 01:10 315 3 5.6
2020-Jan-28 01:00 324 5 5.6
2020-Jan-28 00:51 330 6 5.6
2020-Jan-28 00:42 313 3 6.1
2020-Jan-28 00:32 313 4 6.1
2020-Jan-28 00:23 325 6 6.1
2020-Jan-28 00:13 322 7 6.1
2020-Jan-28 00:03 312 8 6.1
2020-Jan-27 23:54 329 5 6.1
2020-Jan-27 23:45 331 5 6.1
2020-Jan-27 23:35 328 5 6.1
2020-Jan-27 23:26 321 5 6.7
2020-Jan-27 23:17 327 6 6.7
2020-Jan-27 23:07 348 7 6.7
2020-Jan-27 22:58 339 5 6.7
2020-Jan-27 22:48 331 4 7.2
2020-Jan-27 22:38 345 4 7.2
2020-Jan-27 22:28 331 4 7.2
2020-Jan-27 22:18 332 3 7.2
2020-Jan-27 22:09 336 4 7.8
2020-Jan-27 21:59 325 6 7.8
2020-Jan-27 21:50 340 6 7.8
2020-Jan-27 21:41 349 3 8.3
2020-Jan-27 21:32 328 4 8.3
2020-Jan-27 21:22 315 3 8.3
2020-Jan-27 21:13 306 3 8.3
2020-Jan-27 21:03 316 3 8.3
2020-Jan-27 20:54 303 2 8.3
2020-Jan-27 20:44 321 5 8.9
2020-Jan-27 20:34 332 5 8.9
2020-Jan-27 20:25 296 6 8.9
2020-Jan-27 20:15 296 4 8.9
2020-Jan-27 20:06 311 2 8.9
2020-Jan-27 19:56 245 5 8.9
2020-Jan-27 19:46 260 1 8.9
2020-Jan-27 19:37 288 1 8.9
2020-Jan-27 19:27 290 6 8.9
2020-Jan-27 19:18 256 1 8.3
2020-Jan-27 19:08 216 4 8.3
2020-Jan-27 18:59 218 3 8.3
2020-Jan-27 18:50 230 4 8.3
2020-Jan-27 18:40 220 4 8.3
2020-Jan-27 18:30 212 6 8.3
2020-Jan-27 18:21 267 5 8.3
2020-Jan-27 18:11 272 6 8.9
2020-Jan-27 18:01 187 8 8.3
2020-Jan-27 17:51 247 5 8.3
2020-Jan-27 17:42 219 7 8.3
2020-Jan-27 17:32 220 6 8.3
2020-Jan-27 17:22 226 7 8.3
2020-Jan-27 16:44 214 12 7.8
2020-Jan-27 16:35 232 6 7.8
2020-Jan-27 16:25 235 6 7.8
2020-Jan-27 16:15 220 7 7.8
2020-Jan-27 16:05 235 4 7.2
2020-Jan-27 15:56 231 5 7.2
2020-Jan-27 15:47 228 3 6.7
2020-Jan-27 15:37 247 2 6.1
2020-Jan-27 15:27 242 4 5.6
2020-Jan-27 15:09 224 4 5.6
2020-Jan-27 15:00 214 2 5.0
2020-Jan-27 14:51 225 2 5.0
2020-Jan-27 14:41 236 2 4.4
2020-Jan-27 14:31 225 3 3.9
2020-Jan-27 14:22 215 3 3.9
2020-Jan-27 14:12 225 2 3.9
2020-Jan-27 14:03 242 1 3.3
2020-Jan-27 13:53 255 1 3.3
2020-Jan-27 13:44 215 2 2.8
2020-Jan-27 13:35 225 3 2.2
2020-Jan-27 13:26 210 1 1.7
2020-Jan-27 13:16 225 1.1
2020-Jan-27 13:07 225 0.6
2020-Jan-27 12:57 247 0.6
2020-Jan-27 12:47 231 0 0.6
2020-Jan-27 12:38 202 1 0.6
2020-Jan-27 12:28 225 1 0.6
2020-Jan-27 12:19 225 2 0.6
2020-Jan-27 12:09 225 1 0.6
2020-Jan-27 12:00 225 1 0.6
2020-Jan-27 11:50 225 1 0.6
2020-Jan-27 11:41 223 1 -0.0
2020-Jan-27 11:32 212 2 -0.6
2020-Jan-27 11:23 199 1 -0.0
2020-Jan-27 11:13 180 2 0.6
2020-Jan-27 11:04 225 3 0.6
2020-Jan-27 10:54 236 1 -0.0
2020-Jan-27 10:44 202 0 -0.0
2020-Jan-27 10:35 200 1 0.6
2020-Jan-27 10:26 203 2 0.6
2020-Jan-27 10:16 190 3 -0.0
2020-Jan-27 10:06 194 3 -0.0
2020-Jan-27 09:57 203 3 -0.6
2020-Jan-27 09:48 199 3 -1.1
2020-Jan-27 09:38 197 1 -2.2
2020-Jan-27 09:28 247 -2.2
2020-Jan-27 09:19 247 -1.7
2020-Jan-27 09:10 247 -1.7
2020-Jan-27 09:01 247 -1.1
2020-Jan-27 08:51 247 -1.1
2020-Jan-27 08:42 247 -1.1
2020-Jan-27 08:32 247 -0.6
2020-Jan-27 08:23 247 -0.6
2020-Jan-27 08:13 247 -0.0
2020-Jan-27 08:04 247 0.6
2020-Jan-27 07:54 247 0.6
2020-Jan-27 07:45 202 1.1
2020-Jan-27 07:35 180 1 0.6
2020-Jan-27 07:25 180 0 -0.0
2020-Jan-27 07:15 180 -0.0
2020-Jan-27 07:05 180 0 -0.0
2020-Jan-27 06:56 180 1 -0.0
2020-Jan-27 06:46 022 -0.0
2020-Jan-27 06:36 022 -0.6
2020-Jan-27 06:26 022 -0.6
2020-Jan-27 06:16 022 -0.6
2020-Jan-27 06:06 022 -1.1
2020-Jan-27 05:57 022 -1.1
2020-Jan-27 05:47 022 -1.1
2020-Jan-27 05:38 022 -1.1
2020-Jan-27 05:28 022 -0.6
2020-Jan-27 05:19 022 -0.6
2020-Jan-27 05:09 022 -0.6
2020-Jan-27 05:00 022 -0.6
2020-Jan-27 04:51 022 -0.0
2020-Jan-27 04:42 022 -0.0
2020-Jan-27 04:32 022 0.6
2020-Jan-27 04:23 022 0.6
2020-Jan-27 04:14 022 1.1
2020-Jan-27 04:04 022 2.2
2020-Jan-27 03:54 022 2.2
2020-Jan-27 03:44 012 1 2.2
2020-Jan-27 03:34 348 0 3.3
2020-Jan-27 03:25 292 3.9
2020-Jan-27 03:16 315 3.9
2020-Jan-27 03:06 315 4.4
2020-Jan-27 02:56 315 5.0
2020-Jan-27 02:47 315 5.0
2020-Jan-27 02:37 315 5.0
2020-Jan-27 02:28 332 3 5.0
2020-Jan-27 02:18 360 5.0
2020-Jan-27 02:08 315 1 5.6
2020-Jan-27 01:59 312 4 5.6
2020-Jan-27 01:49 318 4 5.6
2020-Jan-27 01:40 315 2 5.6
2020-Jan-27 01:31 315 1 5.6
2020-Jan-27 01:21 311 4 5.6
2020-Jan-27 01:12 336 5 5.6
2020-Jan-27 01:03 316 3 5.6
2020-Jan-27 00:53 315 3 6.1
2020-Jan-27 00:43 306 3 6.1
2020-Jan-27 00:34 315 2 6.1
2020-Jan-27 00:24 314 1 6.1
2020-Jan-27 00:15 311 2 6.1
2020-Jan-27 00:06 298 4 6.1
2020-Jan-26 23:56 315 4 6.1
2020-Jan-26 23:46 315 1 6.1
2020-Jan-26 23:37 337 1 6.1
2020-Jan-26 23:28 315 2 6.1
2020-Jan-26 23:18 315 2 6.7
2020-Jan-26 23:08 318 1 6.7
2020-Jan-26 22:59 315 2 6.7
2020-Jan-26 22:50 294 1 6.7
2020-Jan-26 22:40 315 1 6.7
2020-Jan-26 22:30 337 1 6.7
2020-Jan-26 22:21 315 0 6.7
2020-Jan-26 22:11 315 0 6.7
2020-Jan-26 22:01 315 1 6.7